Regional Weather Roundup
Issued by NWS Sterling, VA

Home | Current Version | Previous Version | Text Only | Print | Product List | Glossary Off
Versions: 1 2 3 4 5 6 7 8 9 10 11 12 13 14 15 16 17 18 19 20 21 22 23 24 25 26 27 28

000
ASUS41 KLWX 291211
RWRLWX

REGIONAL WEATHER ROUNDUP
NATIONAL WEATHER SERVICE BALTIMORE MD/WASHINGTON DC
800 AM EDT WED MAR 29 2017

Note: "FAIR" indicates few or no clouds below 12,000 feet
with no significant weather and/or obstructions to visibility.
 TC=TEMPERATURE CELSIUS

 * =Non NWS site. Station does not report precipitation (e.g. rain,
    snow, etc.), thunder, or fog.

DCZ001-MDZ009-015-VAZ040>042-051-053>054-291300-
WASHINGTON METRO

CITY           SKY/WX    TMP DP  RH WIND       PRES   REMARKS
WASHINGTON NAT CLOUDY    56  46  69 N13       30.09R
DULLES         PTSUNNY   54  47  77 N9        30.09R
ANDREWS AFB    CLOUDY    54  44  69 N13       30.07R
FT BELVOIR     CLOUDY    56  47  71 VRB3      30.09R
QUANTICO       CLOUDY    58  52  80 NE9       30.09R
COLLEGE PARK*  CLOUDY    53  42  66 N7        30.09R
LEESBURG*      CLOUDY    54  52  94 NE6       30.11R
MANASSAS*      CLOUDY   N/A N/A N/A N12       30.09R

$$

MDZ006>007-011-014-291300-
BALTIMORE METRO

CITY           SKY/WX    TMP DP  RH WIND       PRES   REMARKS
BWI AIRPORT    MOSUNNY   51  41  68 NW10      30.10R
MD SCIENCE CTR   N/A     51  37  58 MISG      30.10R
MARTIN STATE   SUNNY     50  43  76 NW8       30.11R
ANNAPOLIS      MOSUNNY   52  42  69 N13       30.08R
FORT MEADE*    SUNNY     50  39  66 N12       30.12R

$$

MDZ012-015-019>023-291300-
MARYLAND EASTERN SHORE

CITY           SKY/WX    TMP DP  RH WIND       PRES   REMARKS
OCEAN CITY     MOSUNNY   52  44  74 N14G24    30.03R
SALISBURY      MOSUNNY   53  46  77 N9        30.04R
BAY BRIDGE AP* SUNNY     48  41  76 N13       30.09R
CAMBRIDGE*     PTSUNNY   52  43  71 N14       30.06R
EASTON*        MOSUNNY   52  41  66 N10G17    30.10R

$$

MDZ017>025-291300-
SOUTHERN MARYLAND

CITY           SKY/WX    TMP DP  RH WIND       PRES   REMARKS
PATUXENT RIVER PTSUNNY   52  47  83 N16       30.05R
ST INIGOES     CLOUDY    55  45  68 NE9G17    30.05R
LEONARDTOWN*   CLOUDY    52  43  71 CALM      30.08R

$$

MDZ003>005-291300-
NORTH CENTRAL MARYLAND

CITY           SKY/WX    TMP DP  RH WIND       PRES   REMARKS
FREDERICK*     CLOUDY    50  48  93 NE10      30.15R
HAGERSTOWN APT CLOUDY    50  42  74 N8        30.12R
WESTMINSTER*   SUNNY     46  39  76 N12G17    30.11R

$$

MDZ501>502-291300-
WESTERN MARYLAND

CITY           SKY/WX    TMP DP  RH WIND       PRES   REMARKS
OAKLAND*       FOG       37  37 100 CALM      30.12R VSB<1/4
CUMBERLAND*    CLOUDY    52  41  66 N8        30.17R

$$

VAZ025>031-291300-
SHENANDOAH VALLEY

CITY           SKY/WX    TMP DP  RH WIND       PRES   REMARKS
WINCHESTER*    CLOUDY    52  43  71 N6        30.11R
FRONT ROYAL*   CLOUDY    52  43  71 NW6       30.11R
LURAY*         CLOUDY    54  46  76 N5        30.10R
NEW MARKET*    CLOUDY    53  44  72 NE5       30.10R
STAUNTON*      MOSUNNY   51  45  81 N8        30.11R
WAYNESBORO*    CLEAR     50  48  94 NW5       30.09R

$$

WVZ021-048>050-054>055-291300-
EASTERN WEST VIRGINIA PANHANDLE

CITY           SKY/WX    TMP DP  RH WIND       PRES   REMARKS
MARTINSBURG    CLOUDY    52  42  69 N14G24    30.11R
PETERSBURG*    CLOUDY    53  45  73 N5        30.13R

$$

VAZ036>039-050-291300-
CENTRAL FOOTHILLS

CITY           SKY/WX    TMP DP  RH WIND       PRES   REMARKS
CHARLOTTESVILL MOSUNNY   58  52  80 CALM      30.07R
CULPEPER*      PTSUNNY   57  48  72 N10       30.10R
ORANGE*        MOSUNNY   54  46  76 N7G17     30.09R
GORDONSVILLE*  MOSUNNY   51  51  99 NE3       30.07R
WARRENTON*     CLOUDY    58  46  65 NW10G21   30.08R

$$

VAZ055>057-291300-
NORTH AND CENTRAL PIEDMONT

CITY           SKY/WX    TMP DP  RH WIND       PRES   REMARKS
FREDERICKSBRG* CLOUDY    60  51  73 N6G17     30.06R
STAFFORD*      PTSUNNY   57  51  80 N14G21    30.11R

$$

NCZ024-NYZ072-PAZ021-071-VAZ022-071-291300-
OTHER REGIONAL OBSERVATIONS

CITY           SKY/WX    TMP DP  RH WIND       PRES   REMARKS
NEW YORK CITY  PTSUNNY   44  38  79 N8        30.06R
PHILADELPHIA   PTSUNNY   46  37  71 NW21G26   30.08R
PITTSBURGH     CLOUDY    45  40  82 N9        30.17R
ROANOKE        PTCLDY    57  47  69 N6        30.09R
RICHMOND       PTSUNNY   59  56  89 NE7       30.05R
RALEIGH        MOSUNNY   58  52  80 NE7       30.05R

$$

ANZ530>537-291300-
MARINE OBSERVATIONS

STATION/POSITION TIME  TEMP    WIND        PRES
                       AIR SEA DIR/SP/G
                 (UTC) (F)     (DEG/KT/KT) (MB)
THOMAS PT LIGHT  1200   49 47   20/ 19/ 20   N/A
BALT KEY BRIDGE  1148   49     350/ 11/ 12 1018.9R
COVE POINT       1148   51      30/ 13/ 15 1018.5R
LEWISETTA        1148   54 53   30/  7/ 11 1017.4R
SOLOMONS ISLAND  1148   53 49   10/ 12/ 17   N/A
PINEY POINT      1148           50/ 10/ 14   N/A

$$





USA.gov is the U.S. government's official web portal to all federal, state and local government web resources and services.